Content
SEND FEEDBACK

Daily
Averages
Monthly
Summary
United States of America

POTTS JUNCTION, GUAM


Home > North America > United States > Guam
Elevation: 110 meters     Latitude: 13 33N     Longitude: 144 50E

WEATHER
 
SELECT A DAY
Number of Records: 209,308;   Date Range: 1/1/95 - 9/18/14
 
SHARE

PRINT THIS DATA

[ ← Previous Day ]
WEATHER ALMANAC - 7 JANUARY, 2013
[ Next Day → ]
[ °F ]   °C
Weather ElementAverageHighLow
Temperature26.8 °C29.4 °C (1:54 pm)24 °C (10:41 pm)
Dewpoint22.4 °C24 °C (10:36 pm)20 °C (6:54 am)
Humidity77.1 %100 % (10:41 pm)63 % (9:54 am)
Barometer1010.5 hPa1012.2 hPa (8:54 am)1008.8 hPa (2:54 pm)
Wind Speed24.6 km/h35.2 km/h (10:54 am)
Wind Gust55.5 km/h (10:54 am)
Weather ElementAverage
Visibility14.6 km
Wind DirectionENE (64.8 °)

Weather ElementTotal
Precipitation6.1 mm
Cooling Degree Days8.4 (Base 18.3)
Growing Degree Days16.7 (Base 10)
Averaged from 25 records on 7 January, 2013
WEATHER CONDITIONS BREAKOUT
WIND DIRECTION BREAKOUT
WEATHER BY HOUR - 7 JANUARY, 2013
[ °F ]   °C
Local TimeTemperatureDewpointHumidityBarometerVisibilityWind DirectionWind SpeedGust SpeedPrecipitationEventsConditions
1:54 AM26.1 °C22.2 °C79 %1009.8 hPa16.1 kmENE (70°)24.1 km/hClear
2:54 AM26.1 °C22.2 °C79 %1009.5 hPa16.1 kmENE (70°)27.8 km/h38.9 km/hMostly Cloudy
3:54 AM25.6 °C22.8 °C84 %1009.5 hPa16.1 kmENE (70°)24.1 km/h33.3 km/h0 mmMostly Cloudy
4:54 AM26.1 °C21.1 °C74 %1010.2 hPa16.1 kmEast (90°)22.2 km/h0 mmPartly Cloudy
5:54 AM25.6 °C21.7 °C79 %1010.2 hPa16.1 kmENE (70°)22.2 km/h0 mmScattered Clouds
6:54 AM25.6 °C20 °C71 %1010.8 hPa16.1 kmEast (80°)22.2 km/hClear
7:54 AM26.7 °C20.6 °C69 %1011.9 hPa16.1 kmENE (70°)20.4 km/hClear
8:54 AM27.8 °C21.7 °C69 %1012.2 hPa16.1 kmNE (50°)27.8 km/hPartly Cloudy
9:54 AM28.3 °C20.6 °C63 %1012.2 hPa16.1 kmENE (70°)29.6 km/hMostly Cloudy
10:54 AM27.2 °C23.3 °C79 %1012.2 hPa12.9 kmEast (80°)35.2 km/h55.5 km/h0 mmRainLight Rain
11:54 AM28.9 °C22.2 °C67 %1011.2 hPa16.1 kmENE (70°)29.6 km/h0 mmPartly Cloudy
12:54 PM26.1 °C23.3 °C84 %1010.5 hPa8 kmENE (70°)24.1 km/h40.7 km/h0 mmRainLight Rain
1:54 PM29.4 °C22.8 °C67 %1009.5 hPa16.1 kmEast (80°)24.1 km/h38.9 km/h0 mmScattered Clouds
2:54 PM29.4 °C22.2 °C65 %1008.8 hPa16.1 kmNE (50°)29.6 km/h40.7 km/hMostly Cloudy
3:54 PM29.4 °C22.8 °C67 %1008.8 hPa16.1 kmENE (60°)27.8 km/h38.9 km/hPartly Cloudy
4:54 PM28.3 °C22.8 °C72 %1009.5 hPa16.1 kmENE (60°)24.1 km/h35.2 km/hClear
5:54 PM27.2 °C22.8 °C77 %1009.8 hPa16.1 kmENE (60°)22.2 km/h31.5 km/hClear
6:54 PM27.2 °C22.2 °C74 %1010.2 hPa16.1 kmENE (60°)20.4 km/h33.3 km/hClear
7:54 PM26.7 °C22.2 °C76 %1010.5 hPa16.1 kmENE (60°)14.8 km/hPartly Cloudy
8:54 PM26.1 °C22.2 °C79 %1010.8 hPa16.1 kmNE (50°)20.4 km/hPartly Cloudy
9:54 PM26.7 °C22.8 °C79 %1011.2 hPa16.1 kmNE (40°)20.4 km/hOvercast
10:36 PM25 °C24 °C94 %1012.2 hPa4 kmENE (70°)22.2 km/h1.52 mmRainHeavy Rain
10:41 PM24 °C24 °C100 %1012.2 hPa4.8 kmENE (70°)24.1 km/h2.29 mmRainHeavy Rain
10:54 PM25 °C23.3 °C90 %1011.5 hPa16.1 kmENE (60°)31.5 km/h42.6 km/h2.29 mmOvercast
11:54 PM25 °C23.3 °C90 %1010.5 hPa16.1 kmNE (40°)22.2 km/h0 mmRainLight Rain
Hourly data recorded from PGUM, located 0 kilometers away from Potts Junction, Guam







STORIES FROM OUR PARTNERS